SCP
0 0 0 0 0 0 0 0 0 0 0 0 0 0 0 0 0 0 0 0 0 0 1 0 0 0 0 0 0 0 0 0 0 0 0 0 0 0 0 0 0 0 0 0 0 0 0 0 0
0 0 0 0 0 0 0 0 0 0 0 0 0 0 0 0 0 0 0 0 0 1 1 0 0 0 0 0 0 0 0 0 0 0 0 0 0 0 0 0 0 0 0 0 0 0 0 0 0
0 0 0 0 0 0 0 0 0 0 0 0 0 0 0 0 0 0 0 0 0 1 0 0 0 0 0 0 0 0 0 0 0 0 0 0 0 0 0 0 0 0 0 0 0 0 0 0 0
0 0 0 0 0 0 0 0 0 0 0 0 0 0 0 0 0 0 0 0 0 0 1 1 0 0 0 0 0 0 0 0 0 0 0 0 0 0 0 0 0 0 0 0 0 0 0 0 0
0 0 0 0 0 0 0 0 0 0 0 0 0 0 0 0 0 0 0 0 0 0 1 1 1 0 0 0 0 0 0 0 0 0 0 0 0 0 0 0 0 0 0 0 0 0 0 0 0
0 0 0 0 0 0 0 0 0 0 0 0 0 0 0 1 1 1 0 0 0 0 1 1 1 0 0 0 0 0 0 0 0 0 0 0 0 0 0 0 0 0 0 0 0 0 0 0 0
0 0 0 0 0 0 0 0 0 0 0 0 0 0 0 1 1 1 1 0 0 1 1 1 0 0 0 0 0 0 0 0 0 0 0 0 0 0 0 0 0 0 0 0 0 0 0 0 0
-0 -0 0 0 0 0 0 0 0 0 0 0 0 0 1 1 1 1 1 1 1 1 1 1 0 0 0 0 0 0 0 0 0 0 0 0 0 0 0 0 0 0 0 0 0 0 0 0 0
-0 -0 0 0 0 0 0 0 0 0 0 0 0 0 1 1 1 1 1 1 1 1 1 1 0 0 0 0 0 0 0 0 0 0 0 0 0 0 0 0 0 0 0 0 0 0 0 0 0
-0 0 0 0 0 0 0 0 0 0 0 0 0 1 1 1 1 1 1 1 1 1 1 1 0 0 0 0 0 0 0 0 0 0 0 0 0 0 0 0 0 0 0 0 0 0 0 0 0
0 0 0 0 0 0 0 0 0 0 0 0 0 1 1 1 1 2 1 1 1 1 1 1 1 1 0 0 0 0 0 0 0 0 0 0 0 0 0 0 0 0 0 0 0 0 0 0 0
0 0 0 0 0 0 0 0 0 0 0 0 0 1 1 1 1 1 2 1 1 1 1 1 1 1 1 1 1 0 0 0 0 0 0 0 0 0 0 0 0 0 0 0 0 0 0 0 0
0 0 0 0 0 0 0 0 0 0 0 0 0 1 1 1 1 1 1 1 1 1 1 1 1 1 1 1 1 0 0 0 0 0 0 0 0 0 0 0 0 0 0 0 0 0 0 0 0
0 0 0 0 0 0 0 0 0 0 0 0 1 1 1 1 1 1 1 1 1 1 1 1 1 1 1 1 1 0 0 0 0 0 0 0 0 0 0 0 0 0 0 0 0 0 0 0 0
0 0 0 0 0 0 0 0 0 0 0 0 1 1 1 1 1 1 1 1 1 1 1 1 1 1 1 1 0 0 0 0 0 0 0 0 0 0 0 0 0 0 0 0 0 0 0 0 0
0 0 0 0 0 0 0 0 0 0 0 0 1 1 1 1 1 1 1 1 1 1 1 1 1 0 1 1 0 0 0 0 0 0 0 0 0 0 0 0 0 0 0 0 0 0 0 0 0
0 0 0 0 0 0 0 0 0 0 0 0 1 1 1 1 1 1 1 1 1 1 1 1 1 0 0 0 0 0 0 0 0 0 0 0 0 0 0 0 0 0 0 0 0 0 0 0 0
0 0 0 0 0 0 0 0 0 0 0 0 0 1 1 1 1 0 0 0 0 0 0 0 0 0 0 0 0 0 0 0 0 0 0 0 0 0 0 0 0 0 0 0 0 0 0 0 0
0 0 0 0 0 0 0 0 0 0 0 0 0 0 0 0 0 0 0 0 0 0 0 0 0 0 0 0 0 0 0 0 0 0 0 0 0 0 0 0 0 0 0 0 0 0 0 0 0
0 0 0 0 0 0 0 0 0 0 0 0 0 0 0 0 0 0 0 0 0 0 0 0 0 0 0 0 0 0 0 0 0 0 0 0 0 0 0 0 0 0 0 0 0 0 0 0 0
0 0 0 0 0 0 0 0 0 0 0 0 0 0 0 0 0 0 0 0 0 0 0 0 0 0 0 0 0 0 0 0 0 0 0 0 0 0 0 0 0 0 0 0 0 0 0 0 0
0 0 0 0 0 0 0 0 0 0 0 0 0 0 0 0 0 0 0 0 0 0 0 0 0 0 0 0 0 0 0 0 0 0 0 0 0 0 0 0 0 0 0 0 0 0 0 0 0
0 0 0 0 0 0 0 0 0 0 0 0 0 0 0 0 0 0 0 0 0 0 0 0 0 0 0 0 0 0 0 0 0 0 0 0 0 0 0 0 0 0 0 0 0 0 0 0 0
0 0 0 0 0 0 0 0 0 0 0 0 0 0 0 0 0 0 0 0 0 0 0 0 0 0 0 0 0 0 0 0 0 0 0 0 0 0 0 0 0 0 0 0 0 0 0 0 0
0 0 0 0 0 0 0 0 0 0 0 0 0 0 0 0 0 0 0 0 0 0 0 0 0 0 0 0 0 0 0 0 0 0 0 0 0 0 0 0 0 0 0 0 0 0 0 0 0
0 0 0 0 0 0 0 0 0 0 0 0 0 0 0 0 0 0 0 0 0 0 0 0 0 0 0 0 0 0 0 0 0 0 0 0 0 0 0 0 0 0 0 0 0 0 0 0 0
0 0 0 0 0 0 0 0 0 0 0 0 0 0 0 0 0 0 0 0 0 0 0 0 0 0 0 0 0 0 0 0 0 0 0 0 0 0 0 0 0 0 0 0 0 0 0 0 0
0 0 0 0 0 0 0 0 0 0 0 0 0 0 0 0 0 0 0 0 0 0 0 0 0 0 0 0 0 0 0 0 0 0 0 0 0 0 0 0 0 0 0 0 0 0 0 0 0
0 0 0 0 0 0 0 0 0 0 0 0 0 0 0 0 0 0 0 0 0 0 0 0 0 0 0 0 0 0 0 0 0 0 0 0 0 0 0 0 0 0 0 0 0 0 0 0 0
0 0 0 0 0 0 0 0 0 0 0 0 0 0 0 0 0 0 0 0 0 0 0 0 0 0 0 0 0 0 0 0 0 0 0 0 0 0 0 0 0 0 0 0 0 0 0 0 0
Wind_Speed
9 7 5 5 8 5 1 3 1 1 2 2 1 0 0 2 3 5 7 15 17 18 19 18 15 15 15 15 14 14 14 14 13 13 12 11 11 10 10 9 9 9 10 10 10 10 11 11 11
6 5 6 7 7 4 2 2 1 1 3 3 3 2 2 3 5 7 9 14 18 18 18 17 17 15 15 15 14 14 14 14 13 13 12 11 10 10 9 9 9 9 9 10 10 10 11 10 10
6 7 7 6 4 3 2 2 1 2 2 4 3 1 1 4 5 6 9 16 17 17 17 18 18 16 15 15 14 14 14 13 13 12 12 11 10 9 9 9 8 9 9 9 9 10 10 10 9
5 7 7 7 2 2 2 1 1 2 4 4 3 3 4 5 3 6 13 17 17 17 17 19 18 16 15 15 14 14 14 13 12 12 11 10 10 9 9 8 8 8 9 9 9 9 9 9 8
7 6 8 6 2 1 0 2 3 3 3 4 4 2 5 5 5 11 15 17 17 16 16 19 18 16 15 15 14 13 13 12 12 11 10 10 9 9 8 8 8 8 8 8 8 8 8 7 7
6 6 7 3 2 1 1 0 3 3 3 3 3 3 6 5 8 12 15 15 15 15 15 17 17 16 15 15 14 13 13 12 11 11 9 9 8 8 8 8 7 7 7 7 7 7 7 6 5
7 6 5 3 1 2 2 1 2 2 2 1 1 2 7 6 8 11 13 13 14 14 14 14 15 15 14 13 13 13 12 11 11 10 9 8 7 7 7 7 6 6 6 6 6 6 5 5 4
6 6 5 3 2 2 3 1 1 3 0 2 1 2 5 9 10 12 12 12 13 12 12 13 12 12 12 13 13 12 12 11 10 9 9 8 7 7 7 8 7 5 5 5 5 5 4 4 3
6 8 4 1 2 1 2 2 1 1 1 2 0 2 6 13 13 14 13 12 12 12 11 11 12 11 11 11 12 12 11 10 10 9 9 7 7 7 8 6 6 5 4 4 4 4 3 3 5
7 6 1 3 4 4 1 3 1 3 4 4 4 5 10 13 14 14 14 15 15 14 12 10 11 11 11 8 9 8 8 8 7 6 7 5 3 2 2 8 5 4 4 5 4 4 5 7 5
6 5 3 2 3 5 4 3 2 5 3 1 3 7 12 13 13 13 14 13 13 12 11 10 9 9 9 6 7 5 4 5 5 6 5 3 3 3 2 3 4 4 5 4 5 5 3 3 2
6 5 5 4 3 4 4 3 3 3 3 4 0 6 12 14 13 13 13 12 11 11 11 10 9 8 7 6 5 5 4 4 4 5 5 3 2 2 1 1 2 2 2 2 1 1 1 2 3
8 5 4 4 4 3 4 3 2 0 2 1 2 7 11 11 11 11 11 11 11 10 10 9 8 8 7 6 4 5 4 4 5 4 4 3 3 2 1 1 1 1 1 2 1 1 1 2 3
4 4 5 4 3 3 4 3 3 2 1 2 3 6 9 10 10 10 10 11 11 11 10 9 8 8 7 6 4 4 4 3 3 4 4 3 2 2 2 2 1 0 0 0 0 0 1 1 1
5 7 7 5 4 3 5 5 2 3 3 3 4 6 8 8 9 10 10 10 10 10 10 9 9 8 8 6 6 4 4 4 3 4 3 3 2 2 2 2 2 1 1 1 0 0 1 2 2
8 10 7 5 4 4 7 3 6 4 4 4 5 6 8 8 9 9 9 9 9 9 9 9 8 9 7 6 5 4 4 4 4 4 4 4 3 3 2 2 2 1 1 1 1 0 1 1 2
9 7 5 3 5 3 6 3 6 4 4 5 6 7 8 8 9 8 9 9 9 9 8 8 7 9 8 7 6 5 4 4 4 4 4 4 4 3 2 2 2 1 1 0 0 1 1 1 2
4 6 5 3 4 5 6 3 5 5 5 6 7 7 8 8 8 9 8 9 9 9 9 8 7 8 8 6 6 5 5 5 4 4 4 4 4 4 2 3 2 1 1 1 1 1 0 2 2
7 8 7 2 1 5 5 4 5 6 6 6 7 8 8 8 8 8 9 9 9 8 9 9 8 8 7 6 6 6 6 5 5 4 5 4 4 4 2 2 3 1 1 1 1 1 1 1 2
9 9 6 2 3 5 4 5 5 7 7 7 8 8 9 10 10 10 10 9 9 9 8 9 8 8 8 6 5 4 5 4 4 4 5 5 4 4 3 2 2 1 1 1 0 1 2 1 1
10 9 6 3 3 6 5 7 8 8 8 8 8 8 9 11 12 11 11 10 10 10 10 8 8 8 7 7 6 6 5 5 5 5 5 5 4 4 2 2 1 1 1 2 0 1 2 2 1
8 3 5 5 7 4 5 6 6 9 10 10 10 10 10 12 12 12 12 11 10 11 10 9 9 8 7 8 7 8 6 5 5 5 5 5 4 4 3 2 2 1 0 1 1 1 1 3 2
3 2 5 6 8 7 6 8 2 8 10 12 13 12 12 13 13 13 13 12 11 11 10 10 9 8 8 7 7 7 6 5 5 5 6 5 4 3 3 3 2 1 0 1 2 1 2 2 3
4 5 5 6 8 8 4 7 2 6 8 11 14 14 13 13 13 13 12 12 11 11 10 10 10 9 8 7 7 6 6 6 6 6 6 5 4 4 4 3 2 1 1 1 0 1 1 2 3
9 8 6 6 6 3 2 6 3 2 5 8 13 16 15 14 14 14 14 14 13 13 12 11 11 10 9 9 8 7 7 7 7 6 6 5 4 4 4 3 2 1 1 1 0 1 2 1 2
10 10 7 6 5 2 4 5 1 4 5 7 11 14 16 16 15 15 15 15 14 14 13 12 12 11 10 9 8 7 8 6 6 5 4 5 3 3 5 4 3 2 2 1 1 2 1 1 2
8 9 6 8 7 7 3 2 4 6 8 10 12 15 16 17 16 16 16 15 15 15 14 14 13 12 11 10 9 8 7 5 5 6 5 4 3 4 5 4 3 3 2 2 2 1 2 2 3
8 6 5 7 6 7 4 3 2 9 12 13 14 16 16 17 17 16 16 15 15 14 14 14 13 12 11 11 9 8 8 7 7 6 5 4 4 4 5 4 4 4 3 3 3 3 2 3 3
9 9 9 7 7 8 6 1 3 5 10 14 16 16 17 17 17 16 16 16 15 15 14 14 13 13 12 11 10 9 9 9 8 7 7 6 6 5 5 5 5 5 4 4 4 4 3 5 4
10 10 10 9 7 7 8 1 6 4 8 12 14 15 16 17 17 16 16 16 15 15 15 14 14 14 13 12 11 10 9 9 9 8 8 7 7 6 6 6 6 6 5 5 6 6 5 6 6
Wind_Direction
202 206 227 240 238 231 113 82 35 122 123 93 121 206 351 358 354 66 111 152 150 147 143 151 150 148 145 142 140 138 138 138 137 136 134 131 126 122 116 111 106 101 98 96 95 95 94 94 93
202 205 232 240 256 238 123 97 136 64 77 126 151 191 155 90 57 95 136 151 151 147 148 153 148 149 146 144 142 140 140 138 137 135 134 131 128 123 118 112 107 103 102 102 100 98 96 94 93
206 232 257 249 256 303 67 94 53 82 143 178 169 182 22 75 102 126 144 153 152 149 150 144 152 151 148 146 144 141 140 139 138 136 134 131 128 124 118 113 109 105 104 104 103 100 96 94 93
220 224 236 248 232 31 349 2 289 192 177 203 210 143 101 63 101 134 147 155 151 152 151 144 156 153 150 148 146 143 142 141 140 137 136 134 130 126 121 117 114 111 108 106 105 101 96 94 91
240 251 238 225 203 85 6 329 265 226 206 203 217 165 110 86 110 137 151 156 155 155 150 147 156 155 154 152 149 146 145 144 143 141 139 138 134 132 129 124 118 115 113 113 110 104 98 92 87
236 243 246 228 124 106 84 333 245 239 213 188 215 203 98 101 131 146 155 159 157 155 147 145 155 157 157 155 153 150 148 147 146 145 144 142 138 135 133 128 124 122 119 117 117 111 104 92 81
265 260 261 264 198 148 82 24 266 263 234 202 255 202 116 126 135 145 151 158 154 151 145 149 157 159 159 158 155 153 153 152 150 149 148 146 143 141 139 136 135 132 129 127 125 123 115 99 84
279 266 234 228 242 108 91 153 318 289 289 57 251 233 134 141 143 144 148 152 150 150 148 152 158 159 164 163 159 157 157 157 154 154 153 151 155 159 158 168 145 145 144 144 141 138 131 121 109
255 251 237 263 289 66 110 221 164 302 171 149 108 19 98 136 148 147 150 153 155 155 153 158 157 162 170 167 158 163 161 160 164 165 159 177 188 171 174 148 135 160 160 158 156 154 149 166 162
241 256 342 4 324 325 294 270 275 225 207 183 155 117 128 147 155 156 161 163 163 161 161 164 161 167 171 167 156 171 169 161 180 163 170 189 175 188 178 120 156 176 177 178 169 170 192 229 193
242 276 332 311 311 302 275 263 267 269 255 256 203 155 153 159 163 166 167 166 164 162 164 163 163 169 167 160 159 167 157 157 172 162 170 182 180 188 189 166 168 185 195 194 167 197 222 243 277
244 265 280 287 310 287 280 266 262 290 338 2 9 165 166 169 172 171 166 164 159 164 165 162 163 166 168 162 159 162 162 165 168 156 179 175 191 203 185 206 188 196 196 189 192 225 224 267 261
235 256 265 265 264 270 257 248 259 318 21 39 150 170 175 177 172 167 166 164 162 164 162 159 161 160 159 156 170 158 162 161 151 155 169 183 192 194 176 185 213 225 196 192 199 226 228 254 253
256 253 251 245 246 230 236 222 222 115 105 128 147 168 176 175 167 163 167 171 169 164 160 157 160 156 156 161 160 148 156 154 154 152 154 175 183 170 172 178 189 211 207 24 263 183 228 259 274
244 246 233 212 215 202 240 221 175 113 147 143 143 152 162 164 161 166 167 172 170 162 157 158 159 160 165 165 163 154 156 156 147 131 135 156 159 145 173 160 164 111 105 152 199 324 262 247 252
228 235 237 170 202 188 246 256 116 138 159 147 140 145 153 155 161 164 162 164 159 156 159 163 164 160 165 161 158 147 149 144 134 132 134 137 130 141 163 141 112 111 168 152 145 218 281 305 291
216 246 272 166 184 208 245 274 126 154 172 158 152 157 155 153 151 150 151 153 156 157 160 161 160 158 160 157 152 145 141 141 140 138 131 128 131 135 142 109 95 169 145 142 252 97 293 283 302
269 281 280 264 169 222 245 242 147 164 182 167 162 163 160 155 151 148 146 150 151 156 157 158 158 156 156 152 145 146 143 145 140 132 121 133 134 131 130 133 129 176 142 128 77 100 348 306 306
288 283 287 293 176 235 243 231 179 170 182 176 169 167 166 156 151 152 154 156 155 155 157 158 156 155 157 155 158 158 155 153 146 138 129 139 136 132 138 126 132 199 127 113 169 239 192 299 323
256 266 271 214 172 241 245 237 188 182 191 184 176 175 172 161 158 156 157 163 161 160 160 157 160 162 165 155 151 156 145 152 137 128 127 140 138 147 150 119 160 142 129 142 135 287 304 349 342
252 262 274 267 204 218 243 225 191 184 191 186 186 183 175 170 165 162 163 167 163 165 166 162 160 160 161 154 152 146 146 157 150 148 147 144 147 147 115 135 105 126 200 129 158 264 297 317 322
259 256 264 241 240 235 239 275 184 183 188 190 189 185 176 172 168 166 166 165 166 165 161 157 156 156 155 165 165 168 170 164 153 160 141 144 148 148 146 142 127 159 98 112 217 70 307 295 293
275 238 239 243 256 267 224 267 178 176 199 193 188 185 179 175 173 170 168 165 164 163 161 159 159 159 158 164 162 174 170 156 151 153 139 155 143 154 154 149 141 157 184 66 21 51 310 297 307
170 184 203 228 246 254 254 266 258 185 210 191 182 181 178 173 171 169 165 162 164 165 164 161 161 161 162 167 167 178 161 156 156 164 158 173 160 159 148 151 147 177 100 115 148 292 235 320 333
209 228 231 223 226 253 136 257 289 155 185 187 180 178 177 173 171 170 169 170 171 172 169 165 164 166 169 171 171 171 166 167 171 177 170 184 171 162 146 149 150 133 115 140 215 233 318 295 296
219 243 267 287 293 298 178 253 46 128 163 176 176 175 174 175 175 175 176 176 176 175 174 172 170 170 172 172 170 169 172 182 171 176 175 176 176 144 139 156 157 154 170 191 204 250 229 256 272
217 236 272 274 276 279 242 213 180 166 177 176 174 174 176 178 177 178 179 179 179 178 178 177 174 174 176 174 170 172 178 179 157 160 184 169 157 152 157 169 173 179 188 210 235 251 261 253 260
258 239 222 254 276 275 262 248 204 176 185 181 180 180 179 179 179 180 181 182 182 180 179 180 179 178 177 177 180 174 175 172 168 178 169 160 162 159 171 184 189 194 198 207 233 228 206 249 250
197 216 241 255 272 282 287 322 76 179 186 184 184 182 180 181 181 181 182 182 182 181 180 181 182 181 182 183 182 177 178 175 177 179 177 177 179 180 191 196 202 205 208 210 223 246 227 242 249
237 235 229 245 244 254 280 311 106 164 180 184 182 181 180 182 180 180 179 179 182 183 183 183 186 186 185 183 182 184 183 181 184 183 184 184 186 194 198 201 208 213 212 215 226 237 236 243 248